Location: Haulchin
(50.3172°N, 3.4360°E)
Time: 14:25:00
(UTC+00:00)

H-2A R/B - Pass Details

Date: 23 May 2024
Orbit: 553 x 571 km, 98.1° (Epoch: 18 June)

Event Time Altitude Azimuth Distance (km) Brightness Sun altitude
Rises 02:11:20 0° 9° (N) 2,761 8.2 -11.8°
Reaches altitude 10° 02:13:32 10° 4° (N) 1,857 7.0 -11.6°
Maximum altitude 02:17:23 47° 291° (WNW) 750 3.9 -11.3°
Enters shadow 02:20:18 16° 222° (SW) 1,488 4.9 -11.0°
